Location: Joplin, MO
(37.0842°N, 94.5133°W)
Time: 02:23:48
(UTC+02:00)

Altair - Visible Passes

Search period start: 25 June 2024 00:00
Search period end: 05 July 2024 00:00
Orbit: 1502 x 1682 km, 47.2° (Epoch: 24 June)

Date Brightness Start Highest point End Pass type
(mag) Time Alt. Az. Time Alt. Az. Time Alt. Az.
25 Jun 7.4 08:05:05 54° SE 08:05:26 54° SE 08:14:23 10° ENE visible
25 Jun 7.8 10:03:02 19° W 10:10:05 62° NNW 10:19:28 10° ENE visible
25 Jun 8.5 12:07:22 10° WNW 12:16:14 45° N 12:25:25 10° ENE visible
26 Jun 7.5 07:40:22 50° SE 07:40:22 50° SE 07:49:06 10° ENE visible
26 Jun 7.7 09:38:18 21° WSW 09:44:49 66° NNW 09:54:12 10° ENE visible
26 Jun 8.5 11:42:03 10° WNW 11:50:54 45° N 12:00:02 10° ENE visible
27 Jun 7.6 07:15:29 45° SE 07:15:29 45° SE 07:23:48 10° ENE visible
27 Jun 7.6 09:13:23 24° WSW 09:19:35 69° NNW 09:28:57 10° ENE visible
27 Jun 8.4 11:16:45 10° WNW 11:25:34 45° N 11:34:39 10° ENE visible
28 Jun 7.7 06:50:18 41° SE 06:50:18 41° SE 06:58:29 10° ENE visible
28 Jun 7.5 08:48:11 24° WSW 08:54:20 73° NNW 09:03:43 10° ENE visible
28 Jun 8.4 10:51:26 10° WNW 11:00:13 46° N 11:09:17 10° ENE visible
29 Jun 7.7 06:24:38 38° SE 06:24:57 38° SE 06:33:10 10° ENE visible
29 Jun 7.4 08:22:27 21° WSW 08:29:07 77° NNW 08:38:28 10° ENE visible
29 Jun 8.3 10:26:06 10° WNW 10:34:53 46° N 10:43:56 10° ENE visible
29 Jun 8.3 12:31:58 10° WNW 12:41:10 56° NNE 12:50:41 10° E visible
30 Jun 7.8 05:57:28 30° SSE 05:59:51 34° SE 06:07:49 10° ENE visible
30 Jun 7.4 07:54:58 11° WSW 08:03:53 81° NNW 08:13:14 10° ENE visible
30 Jun 8.3 10:00:47 10° W 10:09:34 47° N 10:18:36 10° ENE visible
30 Jun 8.3 12:06:44 10° WNW 12:15:52 54° NNE 12:25:18 10° E visible
01 Jul 7.9 05:27:04 10° S 05:34:45 31° SE 05:42:26 10° ENE visible
01 Jul 7.3 07:29:29 10° WSW 07:38:41 86° NNW 07:48:00 10° ENE visible
01 Jul 8.3 09:35:27 10° W 09:44:15 47° N 09:53:17 10° ENE visible
01 Jul 8.3 11:41:30 10° WNW 11:50:33 52° NNE 11:59:54 10° E visible
02 Jul 8.0 05:02:17 10° S 05:09:41 28° SE 05:17:02 10° ENE visible
02 Jul 7.3 07:04:16 10° SW 07:13:28 89° SSE 07:22:47 10° ENE visible
02 Jul 8.2 09:10:07 10° W 09:18:56 48° NNW 09:27:58 10° ENE visible
02 Jul 8.3 11:16:16 10° WNW 11:25:15 50° NNE 11:34:31 10° E visible
03 Jul 8.2 04:37:33 10° S 04:44:36 25° SE 04:51:35 10° ENE visible
03 Jul 7.3 06:39:05 10° SW 06:48:17 84° SE 06:57:33 10° ENE visible
03 Jul 8.2 08:44:47 10° W 08:53:38 50° NNW 09:02:40 10° ENE visible
03 Jul 8.3 10:51:01 10° WNW 10:59:56 49° NNE 11:09:07 10° E visible
04 Jul 8.3 04:12:53 10° S 04:19:31 22° SE 04:26:06 10° E visible
04 Jul 7.3 06:13:55 10° SW 06:23:06 79° SE 06:32:20 10° ENE visible
04 Jul 8.1 08:19:27 10° W 08:28:20 51° NNW 08:37:22 10° ENE visible
04 Jul 8.4 10:25:45 10° WNW 10:34:37 48° N 10:43:43 10° E visible
04 Jul 7.7 12:30:48 10° WNW 12:40:12 87° NNE 12:49:57 10° ESE visible
